Back to catalog

SL-16 DEB

AliveLEO
NORAD 22370·DEBRIS·🇷🇺 Russia

Launched Dec 25, 1992 from Baikonur Cosmodrome

Loading…

Next Passes (next 24 hours)

TLE

FreshSource: Space-Track

Epoch: Sep 14, 2026, 09:27 UTC

1 22370U 92093BK  26257.39405894  .00000471  00000-0  29292-3 0  9990
2 22370  70.9746  47.8214 0106194  78.1708 309.9016 14.07216763725028

Track SL-16 DEB in real time with AllMySat

Download on the App Store